Station History

Weather Underground - logo

Station Historical Data
Daily Summary for September 9, 2017 Units:  English    Metric   Both
« Previous Day
Next Day »
Daily Weekly Monthly Yearly Custom
  High: Low: Average:
Temperature: TemperatureF °F 64.4 °F 78.6 °F
Dew Point: DewpointF °F 56.5 °F 62.7 °F
Humidity: Humidity % 30 % 61 %
Wind Speed: WindSpeedMPH mph 0.0 mph 1 mph
Wind Gust: WindSpeedGustMPH mph - -
Wind:- - SW
Pressure: PressureIn in 29.81 in -
Precipitation: 0.00 in    
Historical Graphs
 
 
Tabular Data for September 9, 2017
Time Temperature Dew Point Pressure Wind Wind Speed Wind Gust Humidity Rainfall Rate (Hourly)
TemperatureF °F DewpointF °F PressureIn in Calm     Humidity % HourlyPrecipIn in
00:02 71.6 °F 63.6 °F 29.82 in Calm     76 % 0.00 in
00:07 71.4 °F 63.8 °F 29.82 in Calm     77 % 0.00 in
00:12 71.2 °F 63.6 °F 29.82 in Calm     77 % 0.00 in
00:17 71.1 °F 63.9 °F 29.83 in Calm     78 % 0.00 in
00:22 70.9 °F 63.7 °F 29.83 in Calm     78 % 0.00 in
00:27 70.7 °F 63.9 °F 29.83 in Calm     79 % 0.00 in
00:32 70.6 °F 63.4 °F 29.83 in Calm     78 % 0.00 in
00:37 70.5 °F 63.7 °F 29.83 in Calm     79 % 0.00 in
00:42 70.6 °F 64.1 °F 29.83 in Calm     80 % 0.00 in
00:47 70.4 °F 63.6 °F 29.83 in Calm     79 % 0.00 in
00:52 70.2 °F 63.7 °F 29.83 in Calm     80 % 0.00 in
00:57 69.9 °F 63.4 °F 29.83 in Calm     80 % 0.00 in
01:02 69.7 °F 63.3 °F 29.83 in Calm     80 % 0.00 in
01:07 69.7 °F 63.3 °F 29.83 in Calm     80 % 0.00 in
01:12 69.6 °F 63.2 °F 29.83 in Calm     80 % 0.00 in
01:17 69.5 °F 63.4 °F 29.83 in Calm     81 % 0.00 in
01:22 69.3 °F 63.2 °F 29.83 in Calm     81 % 0.00 in
01:27 69.2 °F 63.1 °F 29.83 in Calm     81 % 0.00 in
01:32 69.2 °F 63.1 °F 29.84 in Calm     81 % 0.00 in
01:37 69.2 °F 63.1 °F 29.84 in Calm     81 % 0.00 in
01:42 69.2 °F 63.1 °F 29.83 in Calm     81 % 0.00 in
01:47 69.2 °F 63.1 °F 29.83 in Calm     81 % 0.00 in
01:52 69.4 °F 63.0 °F 29.84 in Calm     80 % 0.00 in
01:57 69.3 °F 62.9 °F 29.84 in Calm     80 % 0.00 in
02:03 69.3 °F 62.9 °F 29.84 in Calm     80 % 0.00 in
02:08 69.2 °F 62.8 °F 29.84 in Calm     80 % 0.00 in
02:13 69.2 °F 62.8 °F 29.84 in Calm     80 % 0.00 in
02:18 69.3 °F 62.9 °F 29.83 in Calm     80 % 0.00 in
02:23 69.1 °F 62.7 °F 29.83 in Calm     80 % 0.00 in
02:28 69.0 °F 62.6 °F 29.83 in Calm     80 % 0.00 in
02:33 68.9 °F 62.5 °F 29.84 in Calm     80 % 0.00 in
02:38 68.8 °F 62.4 °F 29.84 in Calm     80 % 0.00 in
02:43 68.7 °F 62.3 °F 29.84 in Calm     80 % 0.00 in
02:48 68.6 °F 62.2 °F 29.84 in Calm     80 % 0.00 in
02:53 68.6 °F 62.5 °F 29.84 in Calm     81 % 0.00 in
02:58 68.5 °F 62.4 °F 29.84 in Calm     81 % 0.00 in
03:03 68.4 °F 62.3 °F 29.84 in Calm     81 % 0.00 in
03:08 68.2 °F 62.8 °F 29.84 in Calm     83 % 0.00 in
03:13 68.1 °F 62.4 °F 29.84 in Calm     82 % 0.00 in
03:18 68.1 °F 62.7 °F 29.84 in Calm     83 % 0.00 in
03:23 68.0 °F 63.0 °F 29.84 in Calm     84 % 0.00 in
03:28 68.0 °F 63.0 °F 29.84 in Calm     84 % 0.00 in
03:33 67.9 °F 62.5 °F 29.85 in Calm     83 % 0.00 in
03:38 67.8 °F 62.8 °F 29.85 in Calm     84 % 0.00 in
03:43 67.9 °F 62.9 °F 29.85 in Calm     84 % 0.00 in
03:48 67.8 °F 62.8 °F 29.85 in Calm     84 % 0.00 in
03:53 67.7 °F 62.7 °F 29.85 in Calm     84 % 0.00 in
03:58 67.6 °F 62.6 °F 29.85 in Calm     84 % 0.00 in
04:03 67.5 °F 62.8 °F 29.85 in Calm     85 % 0.00 in
04:08 67.7 °F 62.7 °F 29.85 in Calm     84 % 0.00 in
04:13 67.7 °F 62.7 °F 29.85 in Calm     84 % 0.00 in
04:18 67.7 °F 62.3 °F 29.85 in Calm     83 % 0.00 in
04:23 68.1 °F 62.4 °F 29.85 in Calm     82 % 0.00 in
04:28 68.0 °F 62.3 °F 29.85 in Calm     82 % 0.00 in
04:33 67.8 °F 62.1 °F 29.85 in Calm     82 % 0.00 in
04:38 67.5 °F 61.8 °F 29.85 in Calm     82 % 0.00 in
04:43 67.3 °F 61.6 °F 29.85 in Calm     82 % 0.00 in
04:48 66.9 °F 61.6 °F 29.85 in Calm     83 % 0.00 in
04:50 66.8 °F 61.5 °F 29.85 in Calm     83 % 0.00 in
04:55 66.6 °F 61.6 °F 29.86 in Calm     84 % 0.00 in
05:00 66.4 °F 61.4 °F 29.86 in Calm     84 % 0.00 in
05:05 66.2 °F 61.6 °F 29.86 in Calm     85 % 0.00 in
05:10 66.1 °F 61.5 °F 29.86 in Calm     85 % 0.00 in
05:15 66.1 °F 61.5 °F 29.86 in Calm     85 % 0.00 in
05:20 66.0 °F 61.0 °F 29.86 in Calm     84 % 0.00 in
05:25 66.1 °F 61.1 °F 29.86 in Calm     84 % 0.00 in
05:30 66.1 °F 61.5 °F 29.86 in Calm     85 % 0.00 in
05:35 66.1 °F 61.8 °F 29.86 in Calm     86 % 0.00 in
05:40 66.1 °F 61.5 °F 29.87 in Calm     85 % 0.00 in
05:45 66.1 °F 61.8 °F 29.86 in Calm     86 % 0.00 in
05:50 65.9 °F 61.6 °F 29.87 in Calm     86 % 0.00 in
05:55 65.8 °F 61.5 °F 29.87 in Calm     86 % 0.00 in
06:01 65.7 °F 61.4 °F 29.87 in Calm     86 % 0.00 in
06:06 65.5 °F 61.5 °F 29.87 in Calm     87 % 0.00 in
06:11 65.2 °F 61.2 °F 29.88 in Calm     87 % 0.00 in
06:16 64.9 °F 60.9 °F 29.88 in Calm     87 % 0.00 in
06:21 64.7 °F 61.1 °F 29.88 in Calm     88 % 0.00 in
06:26 64.5 °F 60.9 °F 29.88 in Calm     88 % 0.00 in
06:31 64.5 °F 60.9 °F 29.88 in Calm     88 % 0.00 in
06:36 64.5 °F 60.9 °F 29.89 in Calm     88 % 0.00 in
06:41 64.7 °F 60.7 °F 29.89 in SE 1.2 mph   87 % 0.00 in
06:46 64.7 °F 60.7 °F 29.89 in SE 1.2 mph   87 % 0.00 in
06:51 64.7 °F 60.7 °F 29.89 in SE 1.2 mph 1.2 mph 87 % 0.00 in
06:56 64.6 °F 60.6 °F 29.89 in SE 1.2 mph 1.2 mph 87 % 0.00 in
07:01 64.5 °F 60.5 °F 29.89 in Calm     87 % 0.00 in
07:06 64.4 °F 60.4 °F 29.89 in Calm     87 % 0.00 in
07:11 64.4 °F 60.4 °F 29.89 in Calm     87 % 0.00 in
07:16 64.5 °F 60.9 °F 29.90 in Calm   0.3 mph 88 % 0.00 in
07:21 64.6 °F 61.0 °F 29.90 in ESE 1.2 mph 1.2 mph 88 % 0.00 in
07:26 64.7 °F 61.1 °F 29.90 in Calm     88 % 0.00 in
07:31 65.0 °F 61.4 °F 29.90 in Calm     88 % 0.00 in
07:36 65.4 °F 61.4 °F 29.90 in ESE 1.2 mph   87 % 0.00 in
07:41 65.8 °F 61.8 °F 29.90 in Calm     87 % 0.00 in
07:46 66.3 °F 62.0 °F 29.90 in Calm     86 % 0.00 in
07:51 66.8 °F 62.1 °F 29.91 in East 1.2 mph   85 % 0.00 in
07:56 67.4 °F 62.1 °F 29.91 in ESE 1.2 mph 1.2 mph 83 % 0.00 in
08:01 68.2 °F 62.1 °F 29.91 in ESE 1.2 mph 1.2 mph 81 % 0.00 in
08:06 69.0 °F 62.6 °F 29.91 in SE 1.2 mph 1.2 mph 80 % 0.00 in
08:11 69.6 °F 62.8 °F 29.91 in ENE 1.2 mph   79 % 0.00 in
08:16 70.1 °F 62.9 °F 29.91 in ENE 3.5 mph 3.5 mph 78 % 0.00 in
08:21 70.6 °F 63.0 °F 29.91 in Calm     77 % 0.00 in
08:26 71.2 °F 62.9 °F 29.91 in ENE 1.2 mph 1.2 mph 75 % 0.00 in
08:31 71.9 °F 63.5 °F 29.91 in South 1.2 mph 1.2 mph 75 % 0.00 in
08:36 72.4 °F 63.6 °F 29.91 in ESE 2.3 mph 2.3 mph 74 % 0.00 in
08:41 73.1 °F 63.9 °F 29.91 in ESE 2.3 mph 2.3 mph 73 % 0.00 in
08:46 73.6 °F 64.0 °F 29.91 in NE 1.2 mph   72 % 0.00 in
08:51 74.3 °F 64.3 °F 29.91 in ENE 1.2 mph 1.2 mph 71 % 0.00 in
08:53 74.6 °F 64.2 °F 29.92 in East 2.0 mph 2.0 mph 70 % 0.00 in
08:58 74.6 °F 63.8 °F 29.92 in East 3.5 mph 3.5 mph 69 % 0.00 in
09:03 75.3 °F 64.0 °F 29.92 in SE 2.3 mph 2.3 mph 68 % 0.00 in
09:08 75.6 °F 63.4 °F 29.92 in East 2.0 mph 2.0 mph 66 % 0.00 in
09:13 75.5 °F 63.8 °F 29.92 in ENE 2.3 mph 2.3 mph 67 % 0.00 in
09:18 75.7 °F 64.0 °F 29.92 in SSE 3.0 mph 3.0 mph 67 % 0.00 in
09:23 76.1 °F 64.3 °F 29.92 in South 1.2 mph   67 % 0.00 in
09:28 76.4 °F 64.2 °F 29.92 in SE 1.2 mph 1.2 mph 66 % 0.00 in
09:33 77.0 °F 63.9 °F 29.92 in East 1.2 mph 1.2 mph 64 % 0.00 in
09:38 77.4 °F 63.4 °F 29.92 in East 3.5 mph 3.5 mph 62 % 0.00 in
09:43 77.7 °F 63.6 °F 29.92 in SE 3.5 mph 3.5 mph 62 % 0.00 in
09:48 78.3 °F 64.7 °F 29.92 in Calm     63 % 0.00 in
09:53 79.0 °F 63.9 °F 29.92 in SE 3.5 mph 3.5 mph 60 % 0.00 in
09:58 79.5 °F 64.4 °F 29.92 in SSE 2.3 mph   60 % 0.00 in
10:03 79.8 °F 64.7 °F 29.92 in SSW 3.5 mph 3.5 mph 60 % 0.00 in
10:08 80.2 °F 64.6 °F 29.92 in SSW 3.5 mph 3.5 mph 59 % 0.00 in
10:13 80.7 °F 64.5 °F 29.92 in SE 3.5 mph 3.5 mph 58 % 0.00 in
10:18 81.0 °F 65.3 °F 29.92 in SE 1.2 mph 1.2 mph 59 % 0.00 in
10:23 81.5 °F 64.3 °F 29.92 in SE 3.5 mph 3.5 mph 56 % 0.00 in
10:28 81.6 °F 65.4 °F 29.92 in South 2.3 mph 2.3 mph 58 % 0.00 in
10:33 82.1 °F 64.8 °F 29.92 in SSE 3.5 mph 3.5 mph 56 % 0.00 in
10:39 82.3 °F 65.5 °F 29.92 in ESE 2.3 mph 2.3 mph 57 % 0.00 in
10:44 82.3 °F 65.5 °F 29.92 in SSE 2.3 mph 2.3 mph 57 % 0.00 in
10:49 82.7 °F 66.4 °F 29.92 in ESE 1.0 mph 1.0 mph 58 % 0.00 in
10:54 83.2 °F 66.4 °F 29.92 in ESE 1.2 mph 1.2 mph 57 % 0.00 in
10:59 83.6 °F 66.2 °F 29.92 in SSW 1.2 mph 1.2 mph 56 % 0.00 in
11:04 84.0 °F 66.6 °F 29.92 in East 2.3 mph 2.3 mph 56 % 0.00 in
11:09 84.3 °F 66.4 °F 29.92 in West 3.5 mph 3.5 mph 55 % 0.00 in
11:14 83.7 °F 66.8 °F 29.92 in SSE 1.2 mph 1.2 mph 57 % 0.00 in
11:19 84.1 °F 66.7 °F 29.92 in ENE 3.5 mph 3.5 mph 56 % 0.00 in
11:24 84.4 °F 67.5 °F 29.92 in SSE 1.2 mph 1.2 mph 57 % 0.00 in
11:29 84.8 °F 66.8 °F 29.92 in South 3.5 mph 3.5 mph 55 % 0.00 in
11:34 85.1 °F 67.6 °F 29.92 in SSE 2.3 mph 2.3 mph 56 % 0.00 in
11:39 85.6 °F 67.0 °F 29.92 in Calm     54 % 0.00 in
11:44 86.0 °F 67.4 °F 29.92 in East 3.0 mph 3.0 mph 54 % 0.00 in
11:49 86.0 °F 68.0 °F 29.92 in SSE 1.2 mph 1.2 mph 55 % 0.00 in
11:54 86.8 °F 68.7 °F 29.91 in ESE 1.2 mph 1.2 mph 55 % 0.00 in
11:59 87.0 °F 67.2 °F 29.91 in ENE 2.3 mph 2.3 mph 52 % 0.00 in
12:04 86.6 °F 66.9 °F 29.91 in NW 2.3 mph 2.3 mph 52 % 0.00 in
12:09 86.1 °F 67.0 °F 29.91 in West 1.2 mph   53 % 0.00 in
12:14 86.5 °F 67.9 °F 29.90 in NW 1.2 mph   54 % 0.00 in
12:19 87.2 °F 68.0 °F 29.90 in Calm     53 % 0.00 in
12:24 88.1 °F 67.1 °F 29.90 in NW 1.2 mph 1.2 mph 50 % 0.00 in
12:29 87.8 °F 68.0 °F 29.90 in SE 1.2 mph 1.2 mph 52 % 0.00 in
12:30 87.8 °F 66.8 °F 29.90 in WNW 2.3 mph 2.3 mph 50 % 0.00 in
12:35 88.1 °F 67.1 °F 29.90 in SSE 2.3 mph 2.3 mph 50 % 0.00 in
12:40 88.2 °F 66.6 °F 29.90 in West 2.3 mph 2.3 mph 49 % 0.00 in
12:45 88.1 °F 65.3 °F 29.90 in NW 2.3 mph   47 % 0.00 in
12:50 88.4 °F 66.8 °F 29.89 in ESE 1.2 mph   49 % 0.00 in
12:55 88.7 °F 65.9 °F 29.89 in WNW 1.2 mph 1.2 mph 47 % 0.00 in
13:00 88.9 °F 64.8 °F 29.89 in Calm     45 % 0.00 in
13:05 89.1 °F 66.2 °F 29.89 in SSE 1.2 mph 1.2 mph 47 % 0.00 in
13:10 89.5 °F 66.6 °F 29.89 in SSE 1.2 mph 1.2 mph 47 % 0.00 in
13:16 89.3 °F 67.0 °F 29.89 in NW 1.2 mph   48 % 0.00 in
13:21 88.8 °F 66.6 °F 29.89 in NW 2.3 mph 2.3 mph 48 % 0.00 in
13:26 88.8 °F 66.6 °F 29.88 in SSE 1.2 mph 1.2 mph 48 % 0.00 in
13:31 89.0 °F 66.8 °F 29.88 in Calm     48 % 0.00 in
13:36 89.6 °F 67.3 °F 29.88 in Calm   0.1 mph 48 % 0.00 in
13:41 90.3 °F 68.5 °F 29.88 in NW 1.2 mph 1.2 mph 49 % 0.00 in
13:46 90.0 °F 66.4 °F 29.87 in WNW 2.3 mph 2.3 mph 46 % 0.00 in
13:51 90.2 °F 67.2 °F 29.87 in Calm     47 % 0.00 in
13:52 90.3 °F 66.7 °F 29.87 in WSW 1.2 mph 1.2 mph 46 % 0.00 in
13:57 91.2 °F 66.9 °F 29.87 in North 1.2 mph 1.2 mph 45 % 0.00 in
14:02 91.4 °F 67.1 °F 29.87 in Calm     45 % 0.00 in
14:03 91.4 °F 67.1 °F 29.87 in Calm     45 % 0.00 in
14:08 91.5 °F 65.2 °F 29.87 in NW 2.3 mph 2.3 mph 42 % 0.00 in
14:13 91.0 °F 65.4 °F 29.86 in Calm     43 % 0.00 in
14:18 91.0 °F 64.7 °F 29.86 in WSW 2.3 mph 2.3 mph 42 % 0.00 in
14:23 91.1 °F 65.5 °F 29.86 in WNW 2.3 mph 2.3 mph 43 % 0.00 in
14:28 91.3 °F 65.7 °F 29.85 in NW 3.5 mph 3.5 mph 43 % 0.00 in
14:33 91.3 °F 65.0 °F 29.85 in NW 2.3 mph 2.3 mph 42 % 0.00 in
14:38 91.0 °F 64.7 °F 29.85 in NW 2.3 mph   42 % 0.00 in
14:39 91.0 °F 63.3 °F 29.85 in NW 1.2 mph 1.2 mph 40 % 0.00 in
14:44 91.2 °F 61.3 °F 29.85 in WNW 3.5 mph 3.5 mph 37 % 0.00 in
14:49 91.6 °F 60.9 °F 29.85 in SW 1.2 mph 1.2 mph 36 % 0.00 in
14:54 92.0 °F 58.8 °F 29.84 in WNW 2.3 mph 2.3 mph 33 % 0.00 in
14:59 91.9 °F 60.3 °F 29.84 in Calm     35 % 0.00 in
15:04 92.4 °F 60.8 °F 29.84 in NW 2.3 mph 2.3 mph 35 % 0.00 in
15:09 92.5 °F 60.9 °F 29.84 in NW 3.5 mph 3.5 mph 35 % 0.00 in
15:14 92.4 °F 62.4 °F 29.84 in WNW 3.5 mph 3.5 mph 37 % 0.00 in
15:19 92.3 °F 61.5 °F 29.84 in NW 2.3 mph 2.3 mph 36 % 0.00 in
15:24 92.4 °F 61.6 °F 29.84 in NW 2.3 mph 2.3 mph 36 % 0.00 in
15:29 92.5 °F 60.0 °F 29.84 in Calm     34 % 0.00 in
15:34 92.4 °F 59.1 °F 29.83 in NW 3.5 mph 3.5 mph 33 % 0.00 in
15:39 92.5 °F 60.9 °F 29.83 in WNW 3.0 mph 3.0 mph 35 % 0.00 in
15:44 92.6 °F 59.3 °F 29.83 in WNW 4.6 mph 4.6 mph 33 % 0.00 in
15:49 92.7 °F 57.6 °F 29.83 in NW 3.5 mph 3.5 mph 31 % 0.00 in
15:54 92.7 °F 56.7 °F 29.83 in WNW 3.5 mph 3.5 mph 30 % 0.00 in
15:59 92.7 °F 58.5 °F 29.83 in WNW 2.3 mph 2.3 mph 32 % 0.00 in
16:04 92.6 °F 58.4 °F 29.82 in NNW 2.3 mph 2.3 mph 32 % 0.00 in
16:09 92.7 °F 58.5 °F 29.82 in WNW 3.5 mph 3.5 mph 32 % 0.00 in
16:14 92.8 °F 57.7 °F 29.82 in NW 3.5 mph 3.5 mph 31 % 0.00 in
16:19 92.4 °F 56.5 °F 29.82 in WNW 5.8 mph 5.8 mph 30 % 0.00 in
16:24 92.5 °F 56.6 °F 29.82 in NW 6.9 mph 6.9 mph 30 % 0.00 in
16:29 92.2 °F 57.2 °F 29.82 in West 3.5 mph 3.5 mph 31 % 0.00 in
16:34 92.2 °F 58.1 °F 29.82 in West 3.5 mph 3.5 mph 32 % 0.00 in
16:39 92.4 °F 57.4 °F 29.82 in North 3.5 mph 3.5 mph 31 % 0.00 in
16:44 92.5 °F 59.2 °F 29.82 in NW 2.3 mph 2.3 mph 33 % 0.00 in
16:49 92.6 °F 59.3 °F 29.82 in NW 3.5 mph 3.5 mph 33 % 0.00 in
16:54 92.3 °F 59.0 °F 29.82 in WNW 4.6 mph 4.6 mph 33 % 0.00 in
16:59 92.4 °F 59.1 °F 29.82 in NW 3.5 mph 3.5 mph 33 % 0.00 in
17:04 92.4 °F 60.0 °F 29.82 in WNW 3.5 mph 3.5 mph 34 % 0.00 in
17:09 92.4 °F 58.3 °F 29.82 in NW 2.3 mph 2.3 mph 32 % 0.00 in
17:14 92.4 °F 58.3 °F 29.82 in WNW 3.5 mph 3.5 mph 32 % 0.00 in
17:19 92.4 °F 59.1 °F 29.82 in West 3.5 mph 3.5 mph 33 % 0.00 in
17:24 92.2 °F 60.6 °F 29.81 in NW 3.5 mph 3.5 mph 35 % 0.00 in
17:29 92.0 °F 59.6 °F 29.81 in NW 3.5 mph 3.5 mph 34 % 0.00 in
17:34 91.9 °F 60.3 °F 29.81 in NW 3.5 mph 3.5 mph 35 % 0.00 in
17:40 91.9 °F 60.3 °F 29.81 in NW 2.3 mph 2.3 mph 35 % 0.00 in
17:45 91.9 °F 60.3 °F 29.81 in NW 3.5 mph 3.5 mph 35 % 0.00 in
17:50 91.9 °F 60.3 °F 29.81 in West 3.5 mph 3.5 mph 35 % 0.00 in
17:55 91.8 °F 61.0 °F 29.81 in WNW 2.3 mph 2.3 mph 36 % 0.00 in
18:00 91.4 °F 61.5 °F 29.81 in WNW 2.3 mph 2.3 mph 37 % 0.00 in
18:05 90.9 °F 61.0 °F 29.81 in North 4.0 mph 4.0 mph 37 % 0.00 in
18:10 90.5 °F 60.7 °F 29.81 in NW 2.3 mph 2.3 mph 37 % 0.00 in
18:15 90.2 °F 60.4 °F 29.81 in NW 2.3 mph 2.3 mph 37 % 0.00 in
18:20 90.0 °F 61.0 °F 29.81 in WNW 2.3 mph 2.3 mph 38 % 0.00 in
18:25 89.8 °F 60.8 °F 29.81 in Calm     38 % 0.00 in
18:30 89.6 °F 61.4 °F 29.81 in WNW 1.2 mph 1.2 mph 39 % 0.00 in
18:35 89.3 °F 61.1 °F 29.81 in NW 2.3 mph 2.3 mph 39 % 0.00 in
18:40 89.1 °F 61.6 °F 29.81 in Calm     40 % 0.00 in
18:45 88.8 °F 60.7 °F 29.81 in NW 1.2 mph 1.2 mph 39 % 0.00 in
18:50 88.5 °F 61.8 °F 29.81 in NNW 1.2 mph 1.2 mph 41 % 0.00 in
18:55 88.2 °F 61.5 °F 29.81 in Calm   0.1 mph 41 % 0.00 in
19:00 87.9 °F 61.9 °F 29.82 in WNW 1.2 mph 1.2 mph 42 % 0.00 in
19:05 87.6 °F 61.7 °F 29.81 in Calm     42 % 0.00 in
19:10 87.3 °F 62.1 °F 29.82 in Calm     43 % 0.00 in
19:15 87.0 °F 62.5 °F 29.82 in Calm     44 % 0.00 in
19:20 86.7 °F 62.2 °F 29.82 in Calm     44 % 0.00 in
19:25 86.5 °F 62.0 °F 29.82 in Calm     44 % 0.00 in
19:30 86.3 °F 62.5 °F 29.82 in Calm     45 % 0.00 in
19:35 86.1 °F 61.6 °F 29.82 in NNW 1.2 mph   44 % 0.00 in
19:40 86.1 °F 62.9 °F 29.83 in Calm     46 % 0.00 in
19:45 85.6 °F 61.8 °F 29.83 in Calm     45 % 0.00 in
19:50 85.4 °F 62.3 °F 29.83 in Calm     46 % 0.00 in
19:55 85.1 °F 62.0 °F 29.83 in Calm     46 % 0.00 in
20:00 84.6 °F 63.9 °F 29.84 in Calm     50 % 0.00 in
20:06 84.3 °F 62.5 °F 29.83 in Calm     48 % 0.00 in
20:11 83.9 °F 63.3 °F 29.84 in Calm     50 % 0.00 in
20:16 83.7 °F 61.9 °F 29.84 in Calm     48 % 0.00 in
20:21 83.8 °F 62.0 °F 29.83 in Calm     48 % 0.00 in
20:26 83.6 °F 64.7 °F 29.84 in Calm     53 % 0.00 in
20:28 83.2 °F 63.7 °F 29.84 in Calm     52 % 0.00 in
20:33 82.3 °F 62.9 °F 29.84 in Calm     52 % 0.00 in
20:38 81.6 °F 63.3 °F 29.84 in Calm     54 % 0.00 in
20:43 81.0 °F 63.3 °F 29.84 in Calm     55 % 0.00 in
20:48 80.4 °F 63.3 °F 29.84 in Calm     56 % 0.00 in
20:53 79.9 °F 63.3 °F 29.84 in Calm     57 % 0.00 in
20:59 79.6 °F 63.0 °F 29.84 in Calm     57 % 0.00 in
21:04 79.5 °F 62.9 °F 29.85 in Calm     57 % 0.00 in
21:09 79.5 °F 61.9 °F 29.85 in Calm     55 % 0.00 in
21:14 79.3 °F 63.2 °F 29.85 in Calm     58 % 0.00 in
21:19 78.9 °F 63.4 °F 29.85 in Calm     59 % 0.00 in
21:24 78.6 °F 63.1 °F 29.85 in Calm     59 % 0.00 in
21:29 78.3 °F 62.8 °F 29.85 in Calm     59 % 0.00 in
21:34 78.1 °F 62.6 °F 29.86 in Calm     59 % 0.00 in
21:35 78.1 °F 63.6 °F 29.86 in Calm     61 % 0.00 in
21:40 77.9 °F 63.4 °F 29.86 in Calm     61 % 0.00 in
21:45 77.7 °F 64.1 °F 29.86 in Calm     63 % 0.00 in
21:50 77.2 °F 63.6 °F 29.86 in Calm     63 % 0.00 in
21:55 77.0 °F 63.9 °F 29.87 in Calm     64 % 0.00 in
22:00 76.8 °F 63.7 °F 29.87 in Calm     64 % 0.00 in
22:05 76.5 °F 63.0 °F 29.87 in Calm     63 % 0.00 in
22:10 76.6 °F 63.5 °F 29.87 in SE 1.2 mph   64 % 0.00 in
22:15 76.7 °F 62.7 °F 29.87 in Calm     62 % 0.00 in
22:20 76.9 °F 62.4 °F 29.87 in ESE 1.2 mph 1.2 mph 61 % 0.00 in
22:25 77.0 °F 62.0 °F 29.87 in Calm   0.1 mph 60 % 0.00 in
22:30 77.1 °F 62.6 °F 29.87 in Calm     61 % 0.00 in
22:35 77.0 °F 63.0 °F 29.87 in Calm     62 % 0.00 in
22:40 76.8 °F 62.8 °F 29.87 in Calm     62 % 0.00 in
22:45 76.8 °F 63.7 °F 29.87 in Calm     64 % 0.00 in
22:50 76.5 °F 63.4 °F 29.87 in Calm     64 % 0.00 in
22:55 76.2 °F 64.0 °F 29.87 in Calm     66 % 0.00 in
23:00 76.0 °F 64.2 °F 29.87 in Calm     67 % 0.00 in
23:05 75.7 °F 62.7 °F 29.87 in Calm     64 % 0.00 in
23:10 76.1 °F 63.0 °F 29.87 in Calm     64 % 0.00 in
23:15 76.1 °F 63.5 °F 29.87 in Calm     65 % 0.00 in
23:20 75.7 °F 63.1 °F 29.87 in Calm     65 % 0.00 in
23:25 75.3 °F 63.2 °F 29.88 in Calm     66 % 0.00 in
23:30 74.8 °F 63.5 °F 29.88 in Calm     68 % 0.00 in
23:35 74.2 °F 63.4 °F 29.88 in Calm     69 % 0.00 in
23:40 73.9 °F 63.9 °F 29.88 in Calm     71 % 0.00 in
23:46 73.5 °F 63.9 °F 29.89 in Calm     72 % 0.00 in
23:51 73.3 °F 63.7 °F 29.89 in Calm     72 % 0.00 in
23:56 73.1 °F 63.9 °F 29.88 in Calm     73 % 0.00 in
Park Place, Exeter, Tulare County, California, USA
Compliments of Weather Underground - 2.75 mb